Flag for Germany Weather past 2 weeks in Plettenberg, North Rhine-Westphalia, Germany

Now
55 °F

Passing clouds.


Feels Like: 53 °F
Forecast: 46 / 60 °F
Wind: 9 mph from Southwest

Location: Dortmund / Wickede

Current Time: Sep 3, 2015 at 9:20:58 PM

Latest Report: Sep 3, 2015 at 8:50 PM


Visibility: N/A

Pressure: 29.95 "Hg

Humidity: 67%

Dew point: 45 °F

Location of PlettenbergLocation

Historic Weather in Plettenberg — Graph

°F

Plettenberg temperature yesterday

Maximum temperature yesterday: 64 °F (at 2:20 PM)
Minimum temperature yesterday: 48 °F (at 5:50 AM)
Average temperature yesterday: 57 °F

Past Weeks' High & Low Weather Summary

 TemperatureHumidityPressure
High88 °F (Aug 30, 2:20 PM)94% (Aug 24, 5:20 AM)30.24 "Hg (Aug 24, 5:20 AM)
Low48 °F (Sep 2, 5:50 AM)26% (Aug 22, 4:50 PM)29.56 "Hg (Aug 24, 2:50 PM)
Average67 °F63%29.96 "Hg
* Reported Aug 19 8:20 PM — Sep 3 8:20 PM, Plettenberg, Weather by CustomWeather, © 2015

Note: Actual official high and low records may vary slightly from our data, if they occured in-between our weather recording intervals... More about our weather records

Advertising

Plettenberg weather history for previous 24 hours

 ConditionsComfort  
Time TempWeatherWind HumidityBarometerVisibility
8:20 PM
Thu, Sep 3
55 °FPassing clouds.5 mph72%29.95 "HgN/A
7:50 PM57 °FPassing clouds.5 mph67%29.92 "HgN/A
7:20 PM59 °FPassing clouds.8 mph63%29.92 "HgN/A
6:50 PM61 °FPassing clouds.10 mph59%29.92 "HgN/A
6:20 PM61 °FPassing clouds.8 mph59%29.92 "HgN/A
5:20 PM63 °FPassing clouds.8 mph56%29.92 "HgN/A
4:50 PM63 °FClear.9 mph56%29.92 "HgN/A
4:20 PM63 °FSunny.8 mph56%29.92 "Hg10 mi
3:50 PM63 °FPassing clouds.8 mph56%29.92 "HgN/A
3:20 PM61 °FPassing clouds.9 mph55%29.92 "HgN/A
2:50 PM61 °FPassing clouds.8 mph63%29.92 "HgN/A
2:20 PM61 °FPassing clouds.7 mph59%29.92 "HgN/A
1:50 PM63 °FPassing clouds.6 mph56%29.92 "HgN/A
1:20 PM59 °FPassing clouds.9 mph63%29.92 "HgN/A
12:50 PM61 °FPassing clouds.5 mph63%29.95 "HgN/A
12:20 PM59 °FPartly sunny.6 mph63%29.95 "HgN/A
11:50 AM61 °FScattered clouds.5 mph59%29.95 "HgN/A
11:20 AM59 °FScattered clouds.5 mph68%29.95 "HgN/A
10:50 AM59 °FScattered clouds.5 mph72%29.95 "HgN/A
10:20 AM59 °FPassing clouds.5 mph72%29.95 "HgN/A
9:50 AM57 °FPassing clouds.6 mph77%29.95 "HgN/A
9:20 AM55 °FPassing clouds.6 mph82%29.95 "Hg4 mi
8:50 AM55 °FScattered clouds.7 mph82%29.95 "Hg4 mi
8:20 AM54 °FScattered clouds.3 mph88%29.95 "Hg4 mi
7:50 AM54 °FScattered clouds.No wind88%29.95 "Hg4 mi
7:20 AM54 °FPassing clouds.2 mph88%29.95 "Hg4 mi
6:50 AM54 °FPassing clouds.2 mph82%29.95 "Hg4 mi
6:20 AM54 °FPartly cloudy.2 mph88%29.95 "HgN/A
5:50 AM54 °FPassing clouds.3 mph82%29.95 "HgN/A
5:20 AM54 °FPassing clouds.5 mph88%29.95 "Hg6 mi
10:50 PM
Wed, Sep 2
55 °FClear.6 mph77%29.98 "Hg10 mi
10:20 PM55 °FClear.5 mph77%29.98 "Hg10 mi
9:50 PM55 °FClear.5 mph77%30.01 "Hg10 mi
9:20 PM59 °FClear.6 mph68%30.01 "Hg10 mi
Weather by CustomWeather, © 2015

See weather overviewHow to use our weather pages